Location: Jaite
(41.2884°N, 81.5737°W)
Time: 22:32:48
(UTC+00:00)

Cosmos 1626 - Pass Details

Date: 18 January 2020
Orbit: 493 x 494 km, 82.5° (Epoch: 17 February)

Event Time Altitude Azimuth Distance (km) Brightness Sun altitude
Rises 00:05:14 0° 207° (SSW) 2,562 6.3 -18.7°
Reaches altitude 10° 00:07:29 10° 217° (SW) 1,686 5.5 -19.2°
Maximum altitude 00:10:50 33° 283° (WNW) 859 3.9 -19.8°
Drops below altitude 10° 00:14:13 10° 348° (NNW) 1,700 4.8 -20.4°
Enters shadow 00:15:59 - 357° (N) 2,381 5.5 -20.7°
